Weather History for KPIL - April, 2013

Change the Weather History Date:

Tuesday, April 23, 2013

  Actual Average Record
Temperature  
Mean Temperature 78 °F -  
Max Temperature 84 °F - - ()
Min Temperature 73 °F - - ()
Cooling Degree Days 14    
Growing Degree Days 28 (Base 50)    
Moisture  
Dew Point 70 °F    
Average Humidity 76    
Maximum Humidity 88    
Minimum Humidity 57    
Precipitation  
Precipitation 0.00 in - - ()
Sea Level Pressure  
Sea Level Pressure 29.87 in    
Wind  
Wind Speed 16 mph (SE)    
Max Wind Speed 28 mph    
Max Gust Speed 37 mph    
Visibility 7 miles    
Events      
T = Trace of Precipitation, MM = Missing Value Source: NWS Daily Summary

Daily Weather History Graph

Daily Weather History Graph

Search for Another Location

Airport or City:

Trip Planner

Search our weather history database for the weather conditions in past years. The results will help you decide how hot, cold, wet, or windy it might be!

Date:

Astronomy

Apr. 23, 2013 Rise Set
Actual Time 6:58 AM CDT 7:57 PM CDT
Civil Twilight 6:34 AM CDT 8:21 PM CDT
Nautical Twilight 6:06 AM CDT 8:49 PM CDT
Astronomical Twilight 5:37 AM CDT 9:18 PM CDT
Moon 6:02 PM CDT (4/23) 5:14 AM CDT (4/23)
Length of Visible Light 13h 46m
Length of Day
12h 58m
Waxing Gibbous, 94% of the Moon is Illuminated
Apr 23
Waxing Gibbous
Apr 25
Full
May 2
Last Quarter
May 9
New
May 17
First Quarter

Hourly Weather History & Observations

Time (CDT) Temp. Heat Index Dew Point Humidity Pressure Visibility Wind Dir Wind Speed Gust Speed Precip Events Conditions
12:53 AM 73.9 °F - 68.0 °F 82% 29.95 in 7.0 mi SSE 13.8 mph - N/A   Clear
1:53 AM - - - N/A% 29.94 in 7.0 mi SSE 12.7 mph - N/A   Clear
2:53 AM - - - N/A% 29.91 in 7.0 mi SSE 10.4 mph - N/A   Scattered Clouds
3:53 AM 73.0 °F - 68.0 °F 84% 29.88 in 7.0 mi SSE 12.7 mph - N/A   Scattered Clouds
4:53 AM 73.9 °F - 68.0 °F 82% 29.86 in 7.0 mi SSE 12.7 mph - N/A   Overcast
5:06 AM 73.4 °F - 68.0 °F 83% 29.86 in 7.0 mi SSE 12.7 mph - N/A   Mostly Cloudy
5:13 AM 73.4 °F - 68.0 °F 83% 29.86 in 7.0 mi SSE 12.7 mph - N/A   Mostly Cloudy
5:53 AM 73.0 °F - 68.0 °F 84% 29.86 in 7.0 mi SSE 10.4 mph - N/A   Partly Cloudy
6:53 AM 73.0 °F - 69.1 °F 87% 29.86 in 6.0 mi SSE 11.5 mph - N/A   Mostly Cloudy
7:46 AM 73.4 °F - 69.8 °F 88% 29.88 in 6.0 mi SE 10.4 mph - N/A   Haze
7:53 AM 73.9 °F - 69.1 °F 85% 29.88 in 6.0 mi SE 12.7 mph - N/A   Haze
8:34 AM 75.2 °F - 69.8 °F 83% 29.88 in 7.0 mi SE 15.0 mph 21.9 mph N/A   Overcast
8:53 AM 77.0 °F - 69.1 °F 76% 29.88 in 7.0 mi SE 19.6 mph 24.2 mph N/A   Overcast
9:14 AM 78.8 °F - 69.8 °F 74% 29.88 in 8.0 mi SE 17.3 mph 26.5 mph 0.00 in   Overcast
9:53 AM - - - N/A% 29.90 in 8.0 mi SE 19.6 mph - 0.00 in   Overcast
10:15 AM 78.8 °F - 69.8 °F 74% 29.89 in 4.0 mi SE 23.0 mph 28.8 mph N/A   Haze
10:53 AM 80.1 °F 82.9 °F 69.1 °F 69% 29.89 in 10.0 mi SE 19.6 mph - N/A   Overcast
11:00 AM 80.6 °F 83.9 °F 69.8 °F 70% 29.89 in 10.0 mi SE 25.3 mph 33.4 mph N/A   Overcast
11:22 AM 80.6 °F 83.9 °F 69.8 °F 70% 29.89 in 10.0 mi SE 19.6 mph 29.9 mph N/A   Overcast
11:33 AM 80.6 °F 83.9 °F 69.8 °F 70% 29.88 in 9.0 mi SE 23.0 mph 32.2 mph N/A   Overcast
11:46 AM 82.4 °F 86.3 °F 69.8 °F 66% 29.87 in 8.0 mi SE 25.3 mph 33.4 mph N/A   Overcast
11:53 AM 82.9 °F 86.5 °F 69.1 °F 63% 29.87 in 7.0 mi SE 27.6 mph 35.7 mph N/A   Mostly Cloudy
12:14 PM 82.4 °F 86.3 °F 69.8 °F 66% 29.86 in 6.0 mi SE 24.2 mph 36.8 mph N/A   Haze
12:53 PM 84.9 °F 88.2 °F 68.0 °F 57% 29.85 in 6.0 mi SE 27.6 mph 35.7 mph N/A   Haze
1:33 PM 82.4 °F 86.3 °F 69.8 °F 66% 29.84 in 7.0 mi SSE 25.3 mph 33.4 mph N/A   Overcast
1:53 PM 82.0 °F 85.5 °F 69.1 °F 65% 29.83 in 7.0 mi SE 26.5 mph 34.5 mph N/A   Overcast
2:53 PM 80.1 °F 82.9 °F 69.1 °F 69% 29.82 in 9.0 mi SE 24.2 mph 33.4 mph N/A   Overcast
3:53 PM 80.1 °F 83.2 °F 70.0 °F 71% 29.81 in 9.0 mi SE 21.9 mph 28.8 mph N/A   Overcast
4:53 PM 79.0 °F - 70.0 °F 74% 29.79 in 9.0 mi SE 20.7 mph 27.6 mph N/A   Overcast
5:53 PM 80.1 °F 83.2 °F 70.0 °F 71% 29.78 in 8.0 mi SE 20.7 mph 31.1 mph N/A   Overcast
6:53 PM 79.0 °F - 70.0 °F 74% 29.82 in 7.0 mi ESE 13.8 mph - N/A   Overcast
7:53 PM 77.0 °F - 71.1 °F 82% 29.84 in 6.0 mi ESE 11.5 mph - N/A   Haze
8:17 PM 77.0 °F - 71.6 °F 83% 29.84 in 8.0 mi SE 13.8 mph - N/A   Overcast
8:53 PM 75.9 °F - 71.1 °F 85% 29.84 in 7.0 mi ESE 15.0 mph - N/A   Scattered Clouds
9:53 PM 75.9 °F - 71.1 °F 85% 29.85 in 7.0 mi SE 12.7 mph - N/A   Clear
10:53 PM 75.9 °F - 71.1 °F 85% 29.89 in 7.0 mi SE 10.4 mph - N/A   Mostly Cloudy
11:53 PM 77.0 °F - 71.1 °F 82% 29.93 in 8.0 mi ESE 5.8 mph - N/A   Overcast